| time (UTC) | temp C | wind direction | speed KPH | gust KPH | rain 1hr cm | rain 24hr cm | rain mn cm | humidity % | barometer mb |
| 20260504160416 | 23 | 110 | 11.3 | 19.3 | 0.00 | 0.00 | 0.00 | 38 | 1013.5 |
| 20260504150916 | 22 | 110 | 14.5 | 16.1 | 0.00 | 0.00 | 0.00 | 41 | 1013.0 |
| 20260504150415 | 22 | 110 | 8.0 | 19.3 | 0.00 | 0.00 | 0.00 | 41 | 1012.9 |
| 20260504140915 | 22 | 110 | 3.2 | 11.3 | 0.00 | 0.00 | 0.00 | 41 | 1012.7 |
| 20260504140415 | 22 | 110 | 6.4 | 11.3 | 0.00 | 0.00 | 0.00 | 41 | 1012.7 |
| 20260504130417 | 21 | 110 | 0.0 | 6.4 | 0.00 | 0.00 | 0.00 | 41 | 1012.1 |
| 20260504110415 | 21 | 110 | 1.6 | 4.8 | 0.00 | 0.00 | 0.00 | 41 | 1011.9 |
| 20260504100417 | 22 | 110 | 6.4 | 12.9 | 0.00 | 0.00 | 0.00 | 40 | 1012.3 |
| 20260504081915 | 22 | 110 | 0.0 | 3.2 | 0.00 | 0.00 | 0.00 | 38 | 1011.7 |
| 20260504081416 | 22 | 110 | 0.0 | 1.6 | 0.00 | 0.00 | 0.00 | 38 | 1011.7 |
| 20260504080916 | 22 | 110 | 0.0 | 3.2 | 0.00 | 0.00 | 0.00 | 38 | 1011.8 |
| 20260504080415 | 22 | 110 | 0.0 | 0.0 | 0.00 | 0.00 | 0.00 | 38 | 1011.8 |
| 20260504050416 | 25 | 110 | 12.9 | 17.7 | 0.00 | 0.00 | 0.00 | 23 | 1011.9 |
| 20260504045915 | 26 | 110 | 4.8 | 14.5 | 0.00 | 0.00 | 0.00 | 23 | 1011.8 |
| 20260504045415 | 26 | 110 | 6.4 | 14.5 | 0.00 | 0.00 | 0.00 | 23 | 1011.7 |
| 20260504044916 | 26 | 110 | 3.2 | 17.7 | 0.00 | 0.00 | 0.00 | 23 | 1011.8 |
| 20260504044415 | 26 | 110 | 8.0 | 17.7 | 0.00 | 0.00 | 0.00 | 22 | 1011.8 |
| 20260504043915 | 26 | 110 | 11.3 | 14.5 | 0.00 | 0.00 | 0.00 | 22 | 1011.6 |
| 20260504043415 | 26 | 110 | 11.3 | 20.9 | 0.00 | 0.00 | 0.00 | 22 | 1011.4 |
| 20260504042915 | 26 | 110 | 1.6 | 19.3 | 0.00 | 0.00 | 0.00 | 21 | 1011.5 |
| 20260504042416 | 26 | 110 | 8.0 | 24.1 | 0.00 | 0.00 | 0.00 | 21 | 1011.3 |
| 20260504041916 | 26 | 110 | 12.9 | 29.0 | 0.00 | 0.00 | 0.00 | 21 | 1011.2 |
| 20260504041416 | 27 | 110 | 12.9 | 16.1 | 0.00 | 0.00 | 0.00 | 20 | 1011.2 |
| 20260504040915 | 27 | 110 | 8.0 | 24.1 | 0.00 | 0.00 | 0.00 | 20 | 1011.1 |
| 20260504040415 | 27 | 110 | 6.4 | 16.1 | 0.00 | 0.00 | 0.00 | 19 | 1011.0 |
| 20260504035916 | 27 | 110 | 6.4 | 24.1 | 0.00 | 0.00 | 0.00 | 19 | 1010.8 |
| 20260504035416 | 27 | 110 | 8.0 | 19.3 | 0.00 | 0.00 | 0.00 | 19 | 1010.7 |
| 20260504034915 | 27 | 110 | 6.4 | 24.1 | 0.00 | 0.00 | 0.00 | 18 | 1010.4 |
| 20260504034415 | 27 | 110 | 24.1 | 24.1 | 0.00 | 0.00 | 0.00 | 18 | 1010.3 |
| 20260504033915 | 27 | 110 | 17.7 | 27.4 | 0.00 | 0.00 | 0.00 | 18 | 1010.2 |
| 20260504033415 | 27 | 110 | 16.1 | 20.9 | 0.00 | 0.00 | 0.00 | 18 | 1010.2 |
| 20260504032915 | 28 | 110 | 6.4 | 24.1 | 0.00 | 0.00 | 0.00 | 18 | 1010.0 |
| 20260504032415 | 28 | 110 | 16.1 | 30.6 | 0.00 | 0.00 | 0.00 | 18 | 1009.9 |
| 20260504031915 | 28 | 110 | 12.9 | 20.9 | 0.00 | 0.00 | 0.00 | 18 | 1009.8 |
| 20260504031415 | 28 | 110 | 14.5 | 22.5 | 0.00 | 0.00 | 0.00 | 18 | 1009.7 |
| 20260504030915 | 28 | 110 | 8.0 | 22.5 | 0.00 | 0.00 | 0.00 | 17 | 1009.7 |
| 20260504030416 | 28 | 110 | 17.7 | 29.0 | 0.00 | 0.00 | 0.00 | 17 | 1009.6 |
| 20260504025916 | 28 | 110 | 8.0 | 22.5 | 0.00 | 0.00 | 0.00 | 17 | 1009.4 |
| 20260504025415 | 28 | 110 | 8.0 | 20.9 | 0.00 | 0.00 | 0.00 | 17 | 1009.2 |
| 20260504024915 | 28 | 110 | 6.4 | 14.5 | 0.00 | 0.00 | 0.00 | 16 | 1009.0 |
| 20260504024416 | 29 | 110 | 11.3 | 17.7 | 0.00 | 0.00 | 0.00 | 16 | 1009.0 |
| 20260504023915 | 29 | 110 | 12.9 | 22.5 | 0.00 | 0.00 | 0.00 | 16 | 1008.9 |
| 20260504023421 | 29 | 110 | 20.9 | 24.1 | 0.00 | 0.00 | 0.00 | 16 | 1008.7 |
| 20260504022916 | 29 | 110 | 8.0 | 19.3 | 0.00 | 0.00 | 0.00 | 15 | 1008.7 |
| 20260504022416 | 30 | 110 | 11.3 | 14.5 | 0.00 | 0.00 | 0.00 | 15 | 1008.6 |
| 20260504021917 | 30 | 110 | 16.1 | 27.4 | 0.00 | 0.00 | 0.00 | 14 | 1008.6 |
| 20260504021417 | 30 | 110 | 17.7 | 29.0 | 0.00 | 0.00 | 0.00 | 14 | 1008.5 |
| 20260504020915 | 30 | 110 | 11.3 | 25.7 | 0.00 | 0.00 | 0.00 | 14 | 1008.2 |
| 20260504020416 | 30 | 110 | 14.5 | 33.8 | 0.00 | 0.00 | 0.00 | 14 | 1008.2 |
| 20260504015915 | 31 | 110 | 16.1 | 33.8 | 0.00 | 0.00 | 0.00 | 13 | 1008.0 |
| 20260504015415 | 31 | 110 | 14.5 | 30.6 | 0.00 | 0.00 | 0.00 | 13 | 1008.0 |
| 20260504014916 | 31 | 110 | 11.3 | 20.9 | 0.00 | 0.00 | 0.00 | 12 | 1007.9 |
| 20260504014416 | 31 | 110 | 14.5 | 29.0 | 0.00 | 0.00 | 0.00 | 12 | 1007.7 |
| 20260504013915 | 31 | 110 | 8.0 | 30.6 | 0.00 | 0.00 | 0.00 | 12 | 1007.8 |
| 20260504013415 | 31 | 110 | 14.5 | 29.0 | 0.00 | 0.00 | 0.00 | 12 | 1007.8 |
| 20260504012915 | 32 | 110 | 27.4 | 27.4 | 0.00 | 0.00 | 0.00 | 12 | 1007.8 |
| 20260504012415 | 32 | 110 | 6.4 | 37.0 | 0.00 | 0.00 | 0.00 | 12 | 1007.8 |
| 20260504011915 | 32 | 110 | 17.7 | 29.0 | 0.00 | 0.00 | 0.00 | 12 | 1007.8 |
| 20260504011415 | 32 | 110 | 14.5 | 27.4 | 0.00 | 0.00 | 0.00 | 12 | 1007.7 |
| 20260504010915 | 33 | 110 | 14.5 | 30.6 | 0.00 | 0.00 | 0.00 | 12 | 1007.8 |
| 20260504010416 | 33 | 110 | 11.3 | 29.0 | 0.00 | 0.00 | 0.00 | 11 | 1007.8 |
| 20260504005915 | 33 | 110 | 6.4 | 29.0 | 0.00 | 0.00 | 0.00 | 11 | 1007.8 |
| 20260504005415 | 33 | 110 | 8.0 | 24.1 | 0.00 | 0.00 | 0.00 | 11 | 1007.8 |
| 20260504004915 | 33 | 110 | 12.9 | 25.7 | 0.00 | 0.00 | 0.00 | 11 | 1007.7 |
| 20260504004415 | 33 | 110 | 12.9 | 22.5 | 0.00 | 0.00 | 0.00 | 14 | 1007.8 |
| 20260504003916 | 33 | 110 | 11.3 | 22.5 | 0.00 | 0.00 | 0.00 | 14 | 1007.8 |
| 20260504003416 | 33 | 110 | 8.0 | 22.5 | 0.00 | 0.00 | 0.00 | 14 | 1007.7 |
| 20260504002915 | 33 | 110 | 12.9 | 20.9 | 0.00 | 0.00 | 0.00 | 13 | 1007.7 |
| 20260504002415 | 33 | 110 | 12.9 | 25.7 | 0.00 | 0.00 | 0.00 | 13 | 1007.8 |
| 20260504001916 | 33 | 110 | 19.3 | 20.9 | 0.00 | 0.00 | 0.00 | 13 | 1007.8 |
| 20260504001415 | 33 | 110 | 14.5 | 20.9 | 0.00 | 0.00 | 0.00 | 13 | 1007.8 |
| 20260504000915 | 33 | 110 | 3.2 | 24.1 | 0.00 | 0.00 | 0.00 | 13 | 1007.9 |
| 20260504000416 | 33 | 110 | 16.1 | 27.4 | 0.00 | 0.00 | 0.00 | 13 | 1007.9 |
| 20260503235916 | 33 | 110 | 14.5 | 22.5 | 0.00 | 0.00 | 0.00 | 14 | 1007.9 |
| 20260503235415 | 33 | 110 | 6.4 | 17.7 | 0.00 | 0.00 | 0.00 | 13 | 1007.9 |
| 20260503234915 | 33 | 110 | 16.1 | 19.3 | 0.00 | 0.00 | 0.00 | 14 | 1008.0 |
| 20260503234417 | 33 | 110 | 4.8 | 14.5 | 0.00 | 0.00 | 0.00 | 14 | 1008.1 |
| 20260503233915 | 33 | 110 | 4.8 | 14.5 | 0.00 | 0.00 | 0.00 | 14 | 1008.0 |
| 20260503233416 | 33 | 110 | 4.8 | 20.9 | 0.00 | 0.00 | 0.00 | 14 | 1008.2 |
| 20260503232915 | 33 | 110 | 16.1 | 20.9 | 0.00 | 0.00 | 0.00 | 14 | 1008.3 |
| 20260503232417 | 33 | 110 | 16.1 | 22.5 | 0.00 | 0.00 | 0.00 | 13 | 1008.3 |
| 20260503231915 | 33 | 110 | 14.5 | 22.5 | 0.00 | 0.00 | 0.00 | 13 | 1008.3 |
| 20260503231415 | 33 | 110 | 11.3 | 27.4 | 0.00 | 0.00 | 0.00 | 14 | 1008.4 |
| 20260503230915 | 34 | 110 | 17.7 | 22.5 | 0.00 | 0.00 | 0.00 | 13 | 1008.4 |
| 20260503230415 | 34 | 110 | 6.4 | 16.1 | 0.00 | 0.00 | 0.00 | 13 | 1008.4 |
| 20260503225916 | 33 | 110 | 6.4 | 20.9 | 0.00 | 0.00 | 0.00 | 14 | 1008.6 |
| 20260503225416 | 33 | 110 | 11.3 | 22.5 | 0.00 | 0.00 | 0.00 | 13 | 1008.6 |
| 20260503224915 | 33 | 110 | 8.0 | 22.5 | 0.00 | 0.00 | 0.00 | 14 | 1008.9 |
| 20260503224415 | 33 | 110 | 12.9 | 17.7 | 0.00 | 0.00 | 0.00 | 14 | 1008.9 |
| 20260503223916 | 33 | 110 | 12.9 | 29.0 | 0.00 | 0.00 | 0.00 | 14 | 1008.9 |
| 20260503223416 | 33 | 110 | 3.2 | 20.9 | 0.00 | 0.00 | 0.00 | 14 | 1008.9 |
| 20260503222915 | 33 | 110 | 8.0 | 27.4 | 0.00 | 0.00 | 0.00 | 14 | 1009.0 |
| 20260503222415 | 34 | 110 | 20.9 | 20.9 | 0.00 | 0.00 | 0.00 | 14 | 1009.2 |
| 20260503221915 | 31 | 110 | 12.9 | 16.1 | 0.00 | 0.00 | 0.00 | 19 | 1009.1 |
| 20260503221415 | 31 | 110 | 16.1 | 25.7 | 0.00 | 0.00 | 0.00 | 19 | 1009.3 |
| 20260503220915 | 31 | 110 | 8.0 | 19.3 | 0.00 | 0.00 | 0.00 | 19 | 1009.4 |
| 20260503220415 | 31 | 110 | 6.4 | 25.7 | 0.00 | 0.00 | 0.00 | 19 | 1009.5 |
| 20260503215915 | 31 | 110 | 16.1 | 33.8 | 0.00 | 0.00 | 0.00 | 19 | 1009.4 |
| 20260503215415 | 31 | 110 | 12.9 | 24.1 | 0.00 | 0.00 | 0.00 | 19 | 1009.4 |
| 20260503214916 | 31 | 110 | 17.7 | 30.6 | 0.00 | 0.00 | 0.00 | 19 | 1009.6 |
| 20260503214417 | 31 | 110 | 16.1 | 22.5 | 0.00 | 0.00 | 0.00 | 19 | 1009.7 |
| 20260503213916 | 31 | 110 | 4.8 | 24.1 | 0.00 | 0.00 | 0.00 | 19 | 1009.9 |
| 20260503213415 | 31 | 110 | 16.1 | 33.8 | 0.00 | 0.00 | 0.00 | 19 | 1009.9 |
| 20260503212916 | 31 | 110 | 17.7 | 29.0 | 0.00 | 0.00 | 0.00 | 19 | 1010.0 |
| 20260503212416 | 31 | 110 | 1.6 | 19.3 | 0.00 | 0.00 | 0.00 | 19 | 1010.0 |
| 20260503211915 | 31 | 110 | 12.9 | 29.0 | 0.00 | 0.00 | 0.00 | 19 | 1010.2 |
| 20260503211417 | 31 | 110 | 14.5 | 19.3 | 0.00 | 0.00 | 0.00 | 19 | 1010.2 |
| 20260503210915 | 31 | 110 | 4.8 | 25.7 | 0.00 | 0.00 | 0.00 | 19 | 1010.2 |
| 20260503210415 | 31 | 110 | 16.1 | 40.2 | 0.00 | 0.00 | 0.00 | 19 | 1010.3 |
| 20260503205916 | 31 | 110 | 11.3 | 33.8 | 0.00 | 0.00 | 0.00 | 19 | 1010.4 |
| 20260503205416 | 31 | 110 | 11.3 | 33.8 | 0.00 | 0.00 | 0.00 | 19 | 1010.3 |
| 20260503204915 | 31 | 110 | 14.5 | 38.6 | 0.00 | 0.00 | 0.00 | 19 | 1010.1 |
| 20260503204607 | 31 | 110 | 16.1 | 30.6 | 0.00 | 0.00 | 0.00 | 19 | 1010.3 |
| 20260503203917 | 31 | 110 | 3.2 | 20.9 | 0.00 | 0.00 | 0.00 | 19 | 1010.3 |
| 20260503203418 | 31 | 110 | 4.8 | 17.7 | 0.00 | 0.00 | 0.00 | 19 | 1010.4 |
| 20260503202917 | 31 | 110 | 6.4 | 40.2 | 0.00 | 0.00 | 0.00 | 19 | 1010.6 |
| 20260503202417 | 31 | 110 | 17.7 | 27.4 | 0.00 | 0.00 | 0.00 | 19 | 1010.6 |
| 20260503201917 | 31 | 110 | 8.0 | 20.9 | 0.00 | 0.00 | 0.00 | 19 | 1010.7 |
| 20260503201418 | 31 | 110 | 8.0 | 22.5 | 0.00 | 0.00 | 0.00 | 19 | 1010.8 |
| 20260503200917 | 31 | 110 | 11.3 | 19.3 | 0.00 | 0.00 | 0.00 | 19 | 1010.8 |
| 20260503200417 | 31 | 110 | 1.6 | 24.1 | 0.00 | 0.00 | 0.00 | 19 | 1010.9 |
| 20260503195918 | 31 | 110 | 14.5 | 29.0 | 0.00 | 0.00 | 0.00 | 19 | 1010.9 |
| 20260503195418 | 31 | 110 | 6.4 | 29.0 | 0.00 | 0.00 | 0.00 | 19 | 1011.0 |
| 20260503194917 | 31 | 110 | 8.0 | 19.3 | 0.00 | 0.00 | 0.00 | 19 | 1011.1 |
| 20260503194417 | 31 | 110 | 19.3 | 19.3 | 0.00 | 0.00 | 0.00 | 19 | 1011.2 |
| 20260503193917 | 31 | 110 | 8.0 | 16.1 | 0.00 | 0.00 | 0.00 | 19 | 1011.3 |
| 20260503193417 | 31 | 110 | 4.8 | 17.7 | 0.00 | 0.00 | 0.00 | 19 | 1011.4 |
| 20260503192917 | 31 | 110 | 6.4 | 24.1 | 0.00 | 0.00 | 0.00 | 19 | 1011.5 |
| 20260503192417 | 31 | 110 | 11.3 | 22.5 | 0.00 | 0.00 | 0.00 | 19 | 1011.5 |
| 20260503191918 | 31 | 110 | 8.0 | 22.5 | 0.00 | 0.00 | 0.00 | 19 | 1011.5 |
| 20260503191417 | 31 | 110 | 11.3 | 20.9 | 0.00 | 0.00 | 0.00 | 19 | 1011.6 |
| 20260503190917 | 31 | 110 | 8.0 | 20.9 | 0.00 | 0.00 | 0.00 | 19 | 1011.6 |
| 20260503190418 | 31 | 110 | 12.9 | 22.5 | 0.00 | 0.00 | 0.00 | 19 | 1011.7 |
| 20260503185917 | 31 | 110 | 8.0 | 14.5 | 0.00 | 0.00 | 0.00 | 19 | 1011.8 |
| 20260503185417 | 31 | 110 | 11.3 | 25.7 | 0.00 | 0.00 | 0.00 | 19 | 1011.9 |
| 20260503184917 | 31 | 110 | 14.5 | 20.9 | 0.00 | 0.00 | 0.00 | 19 | 1012.0 |
| 20260503184417 | 31 | 110 | 4.8 | 20.9 | 0.00 | 0.00 | 0.00 | 19 | 1012.0 |
| 20260503183917 | 31 | 110 | 4.8 | 19.3 | 0.00 | 0.00 | 0.00 | 19 | 1012.0 |
| 20260503183417 | 31 | 110 | 6.4 | 17.7 | 0.00 | 0.00 | 0.00 | 19 | 1012.1 |
| 20260503182917 | 31 | 110 | 6.4 | 16.1 | 0.00 | 0.00 | 0.00 | 19 | 1012.2 |
| 20260503182419 | 31 | 110 | 16.1 | 20.9 | 0.00 | 0.00 | 0.00 | 19 | 1012.3 |
| 20260503181917 | 31 | 110 | 4.8 | 16.1 | 0.00 | 0.00 | 0.00 | 19 | 1012.2 |
| 20260503181417 | 31 | 110 | 12.9 | 17.7 | 0.00 | 0.00 | 0.00 | 19 | 1012.3 |
| 20260503180917 | 31 | 110 | 12.9 | 24.1 | 0.00 | 0.00 | 0.00 | 19 | 1012.6 |
| 20260503180417 | 31 | 110 | 6.4 | 17.7 | 0.00 | 0.00 | 0.00 | 19 | 1012.6 |
| 20260503175917 | 31 | 110 | 4.8 | 35.4 | 0.00 | 0.00 | 0.00 | 19 | 1012.5 |
| 20260503175417 | 31 | 110 | 6.4 | 17.7 | 0.00 | 0.00 | 0.00 | 19 | 1012.5 |
| 20260503174917 | 31 | 110 | 11.3 | 19.3 | 0.00 | 0.00 | 0.00 | 20 | 1012.6 |
| 20260503174417 | 31 | 110 | 12.9 | 20.9 | 0.00 | 0.00 | 0.00 | 20 | 1012.6 |
| 20260503173917 | 31 | 110 | 3.2 | 20.9 | 0.00 | 0.00 | 0.00 | 19 | 1012.6 |
| 20260503173417 | 30 | 110 | 16.1 | 22.5 | 0.00 | 0.00 | 0.00 | 20 | 1012.7 |
| 20260503172917 | 30 | 110 | 16.1 | 24.1 | 0.00 | 0.00 | 0.00 | 21 | 1012.7 |
| 20260503172417 | 30 | 110 | 12.9 | 16.1 | 0.00 | 0.00 | 0.00 | 22 | 1012.8 |
| 20260503171917 | 30 | 110 | 12.9 | 25.7 | 0.00 | 0.00 | 0.00 | 22 | 1012.7 |
| 20260503171417 | 30 | 110 | 12.9 | 25.7 | 0.00 | 0.00 | 0.00 | 23 | 1012.8 |
| 20260503170917 | 30 | 110 | 12.9 | 27.4 | 0.00 | 0.00 | 0.00 | 23 | 1012.9 |
| 20260503170418 | 29 | 110 | 6.4 | 22.5 | 0.00 | 0.00 | 0.00 | 23 | 1012.8 |